Location: ????????
(55.6333°N, 37.7000°E)
Time: 11:44:41
(UTC+00:00)

ALOS 2 - Pass Details

Date: 19 May 2025
Orbit: 630 x 632 km, 97.9° (Epoch: 14 June)

Event Time Altitude Azimuth Distance (km) Brightness Sun altitude
Exits shadow 20:41:23 22° 165° (SSE) 1,379 3.7 -13.8°
Maximum altitude 20:44:11 87° 255° (WSW) 642 2.6 -13.9°
Drops below altitude 10° 20:48:37 10° 344° (NNW) 2,029 6.6 -14.0°
Sets 20:50:50 0° 345° (NNW) 2,941 8.0 -14.0°
